Simultaneous Nadir Overpasses (SNOs) Predictions

Prediction of SNOs between AURA and NPP Satellite Orbit:

Table of predicted SNOs for the next 14.0 days since TLE Epoch: 9/11/2020
Index Date (AURA) Time (AURA) Lat,Lon (AURA) SZA (AURA ) Date (NPP) Time (NPP) Lat,Lon (NPP) SZA (NPP ) Distance(km) Time Diff (sec)
1 09/13/2020 19:08:43 79.25, 147.94 89.24 09/13/2020 19:08:00 79.25, 147.99 89.26 1.00 43
2 09/13/2020 19:58:05 -79.45, -43.08 91.04 09/13/2020 19:58:40 -79.44, -43.20 91.05 2.61 35
3 09/16/2020 11:25:08 79.35, -95.52 90.06 09/16/2020 11:24:52 79.35, -95.45 90.06 1.48 16
4 09/16/2020 12:14:30 -79.55, 73.50 90.22 09/16/2020 12:15:32 -79.54, 73.40 90.24 2.22 62
5 09/19/2020 02:52:17 -79.11,-148.83 88.64 09/19/2020 02:51:11 -79.11,-148.85 88.59 0.47 66
6 09/19/2020 03:41:34 79.45, 20.99 90.91 09/19/2020 03:41:45 79.45, 21.11 90.88 2.57 11
7 09/21/2020 19:08:42 -79.24, -32.11 87.85 09/21/2020 19:08:03 -79.25, -32.07 87.83 1.05 39
8 09/21/2020 19:58:02 79.46, 136.96 91.87 09/21/2020 19:58:41 79.45, 136.86 91.86 2.16 39
9 09/24/2020 11:25:07 -79.37, 84.59 87.04 09/24/2020 11:24:55 -79.38, 84.73 87.06 3.17 12
